TimeCEST,TemperatureF,Dew PointF,Humidity,Sea Level PressureIn,VisibilityMPH,Wind Direction,Wind SpeedMPH,Gust SpeedMPH,PrecipitationIn,Events,Conditions,WindDirDegrees,DateUTC
12:00 AM,48.2,41.0,76,30.04,6.2,WSW,4.6,-,N/A,Rain,Light Rain,250,2011-10-10 22:00:00
12:30 AM,48.2,42.8,82,30.04,6.2,SW,6.9,-,N/A,Rain,Light Rain,230,2011-10-10 22:30:00
1:00 AM,48.2,44.6,87,30.04,6.2,SW,9.2,-,N/A,Rain,Light Rain,230,2011-10-10 23:00:00
1:30 AM,48.2,44.6,87,30.04,6.2,SW,10.4,-,N/A,Rain,Light Rain,230,2011-10-10 23:30:00
2:00 AM,48.2,44.6,87,30.04,6.2,SW,10.4,-,N/A,,Mostly Cloudy,230,2011-10-11 00:00:00
2:30 AM,48.2,44.6,87,30.04,6.2,WSW,8.1,-,N/A,,Mostly Cloudy,240,2011-10-11 00:30:00
3:00 AM,48.2,44.6,87,30.04,6.2,SW,6.9,-,N/A,,Mostly Cloudy,220,2011-10-11 01:00:00
3:30 AM,48.2,44.6,87,30.04,6.2,SW,8.1,-,N/A,,Mostly Cloudy,230,2011-10-11 01:30:00
4:00 AM,48.2,44.6,87,30.04,6.2,WSW,8.1,-,N/A,,Mostly Cloudy,240,2011-10-11 02:00:00
4:30 AM,48.2,44.6,87,30.04,6.2,SW,8.1,-,N/A,,Mostly Cloudy,230,2011-10-11 02:30:00
5:00 AM,48.2,46.4,93,30.04,3.7,SW,8.1,-,N/A,,Light Drizzle,230,2011-10-11 03:00:00
5:30 AM,48.2,46.4,93,30.01,3.7,SW,6.9,-,N/A,,Overcast,230,2011-10-11 03:30:00
6:00 AM,48.2,46.4,93,30.01,3.7,SW,5.8,-,N/A,,Overcast,220,2011-10-11 04:00:00
6:30 AM,48.2,46.4,93,30.04,3.7,SW,4.6,-,N/A,,Overcast,220,2011-10-11 04:30:00
7:00 AM,48.2,48.2,100,30.04,3.1,SW,5.8,-,N/A,,Overcast,220,2011-10-11 05:00:00
7:30 AM,48.2,48.2,100,30.01,3.1,Variable,2.3,-,N/A,,Mostly Cloudy,0,2011-10-11 05:30:00
8:00 AM,50.0,48.2,94,30.04,3.1,SSW,4.6,-,N/A,,Mostly Cloudy,200,2011-10-11 06:00:00
8:30 AM,50.0,48.2,94,30.04,3.1,WSW,6.9,-,N/A,,Mostly Cloudy,240,2011-10-11 06:30:00
9:00 AM,51.8,50.0,94,30.04,3.7,West,6.9,-,N/A,,Mostly Cloudy,260,2011-10-11 07:00:00
9:30 AM,53.6,50.0,88,30.04,4.3,SW,6.9,-,N/A,,Mostly Cloudy,230,2011-10-11 07:30:00
10:00 AM,53.6,50.0,88,30.04,5.0,SSW,4.6,-,N/A,,Mostly Cloudy,200,2011-10-11 08:00:00
10:30 AM,57.2,51.8,82,30.04,6.2,WSW,4.6,-,N/A,,Mostly Cloudy,240,2011-10-11 08:30:00
11:00 AM,57.2,51.8,82,30.04,6.2,WSW,8.1,-,N/A,,Mostly Cloudy,240,2011-10-11 09:00:00
11:30 AM,60.8,53.6,77,30.06,6.2,West,10.4,-,N/A,,Mostly Cloudy,280,2011-10-11 09:30:00
12:00 PM,64.4,53.6,68,30.04,6.2,WNW,16.1,-,N/A,,Mostly Cloudy,300,2011-10-11 10:00:00
12:30 PM,64.4,53.6,68,30.04,6.2,WNW,16.1,-,N/A,,Mostly Cloudy,300,2011-10-11 10:30:00
1:00 PM,66.2,53.6,64,30.04,6.2,WNW,18.4,-,N/A,,Mostly Cloudy,300,2011-10-11 11:00:00
1:30 PM,66.2,53.6,64,30.04,6.2,WNW,17.3,-,N/A,,Mostly Cloudy,290,2011-10-11 11:30:00
2:00 PM,66.2,53.6,64,30.04,6.2,WNW,19.6,-,N/A,,Mostly Cloudy,300,2011-10-11 12:00:00
2:30 PM,68.0,53.6,60,30.01,6.2,WNW,19.6,-,N/A,,Mostly Cloudy,300,2011-10-11 12:30:00
3:00 PM,66.2,51.8,60,30.01,6.2,WNW,16.1,-,N/A,,Mostly Cloudy,300,2011-10-11 13:00:00
3:30 PM,66.2,53.6,64,30.01,6.2,WNW,17.3,-,N/A,,Mostly Cloudy,300,2011-10-11 13:30:00
4:00 PM,68.0,53.6,60,30.01,6.2,WNW,13.8,-,N/A,,Mostly Cloudy,290,2011-10-11 14:00:00
4:30 PM,66.2,53.6,64,30.01,6.2,WNW,13.8,-,N/A,,Mostly Cloudy,290,2011-10-11 14:30:00
5:00 PM,66.2,53.6,64,30.01,6.2,West,11.5,-,N/A,,Mostly Cloudy,280,2011-10-11 15:00:00
5:30 PM,64.4,53.6,68,30.01,6.2,West,8.1,-,N/A,,Mostly Cloudy,280,2011-10-11 15:30:00
6:00 PM,64.4,53.6,68,30.01,6.2,West,6.9,-,N/A,,Mostly Cloudy,260,2011-10-11 16:00:00
6:30 PM,64.4,53.6,68,30.01,6.2,West,5.8,-,N/A,,Scattered Clouds,270,2011-10-11 16:30:00
7:00 PM,62.6,51.8,68,30.01,6.2,Variable,3.5,-,N/A,,Partly Cloudy,0,2011-10-11 17:00:00
7:30 PM,59.0,51.8,77,30.01,-9999.0,Variable,3.5,-,N/A,,Clear,0,2011-10-11 17:30:00
8:00 PM,57.2,50.0,77,30.01,-9999.0,Variable,2.3,-,N/A,,Clear,0,2011-10-11 18:00:00
8:30 PM,59.0,51.8,77,30.01,-9999.0,Variable,2.3,-,N/A,,Clear,0,2011-10-11 18:30:00
9:00 PM,60.8,53.6,77,30.01,-9999.0,WSW,4.6,-,N/A,,Clear,240,2011-10-11 19:00:00
9:30 PM,60.8,51.8,72,29.98,-9999.0,SW,4.6,-,N/A,,Clear,230,2011-10-11 19:30:00
10:00 PM,60.8,53.6,77,29.98,-9999.0,SW,9.2,-,N/A,,Clear,230,2011-10-11 20:00:00
10:30 PM,60.8,53.6,77,29.98,-9999.0,WSW,5.8,-,N/A,,Clear,240,2011-10-11 20:30:00
11:00 PM,59.0,51.8,77,29.98,6.2,WSW,5.8,-,N/A,,Mostly Cloudy,250,2011-10-11 21:00:00
11:30 PM,59.0,53.6,82,29.98,6.2,WSW,6.9,-,N/A,,Mostly Cloudy,240,2011-10-11 21:30:00